SH055 KNSE-KNSE

Flight info

Callsign SH055
Flight time N/A
Altitude 10500
Route VFR
Aircraft TEX2/L-SDGRY/C

Departure

Time 2026-04-13 17:25
Airport Whiting Field Naval Air Station - North (KNSE)

Arrival

Time N/A
Airport Whiting Field Naval Air Station - North (KNSE)
Time Latitude Longitude Altitude Speed Heading
2026-04-13 16:53 30.71745 -87.02380 191 ft 0 kts 272°
2026-04-13 17:17 30.71745 -87.02381 191 ft 0 kts 272°
2026-04-13 17:17 30.71745 -87.02385 196 ft 0 kts 275°
2026-04-13 17:18 30.71745 -87.02386 196 ft 0 kts 276°
2026-04-13 17:18 30.71751 -87.02399 196 ft 3 kts 321°
2026-04-13 17:18 30.71781 -87.02403 191 ft 6 kts
2026-04-13 17:19 30.71796 -87.02403 191 ft 0 kts
2026-04-13 17:20 30.71802 -87.02402 191 ft 3 kts
2026-04-13 17:20 30.71822 -87.02401 199 ft 0 kts
2026-04-13 17:20 30.71872 -87.02399 194 ft 11 kts
2026-04-13 17:21 30.71938 -87.02436 191 ft 13 kts 310°
2026-04-13 17:21 30.71990 -87.02526 191 ft 16 kts 300°
2026-04-13 17:21 30.72063 -87.02659 191 ft 21 kts 301°
2026-04-13 17:21 30.72178 -87.02749 191 ft 24 kts
2026-04-13 17:22 30.72363 -87.02745 191 ft 29 kts
2026-04-13 17:22 30.72584 -87.02732 191 ft 34 kts 10°
2026-04-13 17:22 30.72750 -87.02768 191 ft 22 kts 314°
2026-04-13 17:22 30.72871 -87.02894 191 ft 19 kts 316°
2026-04-13 17:23 30.72888 -87.02910 191 ft 0 kts 329°
2026-04-13 17:23 30.72894 -87.02913 191 ft 6 kts 341°
2026-04-13 17:23 30.72953 -87.02881 196 ft 13 kts 46°
2026-04-13 17:23 30.72985 -87.02828 191 ft 6 kts 73°
2026-04-13 17:24 30.72959 -87.02770 191 ft 8 kts 133°
2026-04-13 17:24 30.72952 -87.02762 191 ft 0 kts 135°
2026-04-13 17:24 30.72943 -87.02753 191 ft 8 kts 136°
2026-04-13 17:24 30.72882 -87.02684 196 ft 36 kts 137°
2026-04-13 17:25 30.72428 -87.02206 298 ft 127 kts 137°
2026-04-13 17:25 30.71705 -87.01454 912 ft 148 kts 141°
2026-04-13 17:25 30.70822 -87.00722 1497 ft 161 kts 145°
2026-04-13 17:25 30.69998 -86.99894 2529 ft 154 kts 127°
2026-04-13 17:26 30.69687 -86.98650 3498 ft 170 kts 88°
2026-04-13 17:26 30.70137 -86.97459 4719 ft 162 kts 58°
2026-04-13 17:26 30.71006 -86.96749 6020 ft 145 kts 12°
2026-04-13 17:26 30.71980 -86.96900 7169 ft 141 kts 339°
2026-04-13 17:27 30.73927 -86.97449 9087 ft 145 kts 343°
2026-04-13 17:27 30.74898 -86.97748 10044 ft 147 kts 341°
2026-04-13 17:27 30.75844 -86.98125 11049 ft 141 kts 338°
2026-04-13 17:28 30.76776 -86.98534 11915 ft 147 kts 333°
2026-04-13 17:28 30.77746 -86.99042 12729 ft 156 kts 332°
2026-04-13 17:28 30.78729 -86.99539 13710 ft 153 kts 333°
2026-04-13 17:28 30.79713 -87.00026 14544 ft 157 kts 333°
2026-04-13 17:29 30.80768 -87.00495 15242 ft 166 kts 336°
2026-04-13 17:29 30.81868 -87.00932 16022 ft 167 kts 334°
2026-04-13 17:29 30.82974 -87.01412 16779 ft 169 kts 334°
2026-04-13 17:29 30.84056 -87.01905 17619 ft 166 kts 330°
2026-04-13 17:30 30.85183 -87.02477 17796 ft 179 kts 332°
2026-04-13 17:30 30.86279 -87.02989 17741 ft 168 kts 331°
2026-04-13 17:30 30.87444 -87.03482 17514 ft 182 kts 335°
2026-04-13 17:30 30.88644 -87.04001 17506 ft 188 kts 332°
2026-04-13 17:31 30.89865 -87.04593 17671 ft 192 kts 331°
2026-04-13 17:31 30.91142 -87.05235 17605 ft 206 kts 332°
2026-04-13 17:31 30.92487 -87.05898 17529 ft 215 kts 332°
2026-04-13 17:31 30.93848 -87.06573 17624 ft 216 kts 329°
2026-04-13 17:32 30.95230 -87.07369 17636 ft 226 kts 327°
2026-04-13 17:32 30.96631 -87.08228 17717 ft 232 kts 328°
2026-04-13 17:32 30.98045 -87.09140 17720 ft 231 kts 315°
2026-04-13 17:32 30.98467 -87.10763 17596 ft 220 kts 246°
2026-04-13 17:33 30.97278 -87.11659 17691 ft 222 kts 186°
2026-04-13 17:33 30.96127 -87.10605 17691 ft 235 kts 92°
2026-04-13 17:33 30.96915 -87.09131 17899 ft 224 kts 14°
2026-04-13 17:33 30.98020 -87.09741 17639 ft 195 kts 255°
2026-04-13 17:34 30.97351 -87.08545 17079 ft 227 kts 22°
2026-04-13 17:34 30.98847 -87.08485 17009 ft 218 kts 322°
2026-04-13 17:34 30.99482 -87.09961 16746 ft 217 kts 265°
2026-04-13 17:35 30.98748 -87.11327 16539 ft 227 kts 209°